The Dalles, WA

10:02 PM PST on December 11, 2019 (GMT -0800)
Columbia Gorge Regional-The Dalles

Weather History for KDLS - October, 2019

Change the Weather History Date:

Thursday, October 17, 2019

  Actual Average Record
Temperature  
Mean Temperature 54 °F -  
Max Temperature 64 °F 67 °F 80 °F (1974)
Min Temperature 48 °F 40 °F 28 °F (1948)
Degree Days  
Heating Degree Days 10    
Growing Degree Days 4 (Base 50)    
Moisture  
Dew Point 44 °F    
Average Humidity 70    
Maximum Humidity 83    
Minimum Humidity 47    
Precipitation  
Precipitation 0.01 in - - ()
Sea Level Pressure  
Sea Level Pressure 29.77 in    
Wind  
Wind Speed 7 mph (NW)    
Max Wind Speed 18 mph    
Max Gust Speed 28 mph    
Visibility 10 miles    
Events      
Averages and records for this station are not official NWS values.
T = Trace of Precipitation, MM = Missing Value Source: NWS Daily Summary

Daily Weather History Graph

Daily Weather History Graph

Search for Another Location

Airport or City:

Astronomy

Oct. 17, 2019 Rise Set
Actual Time 7:23 AM PDT 6:15 PM PDT
Civil Twilight 6:53 AM PDT 6:45 PM PDT
Nautical Twilight 6:19 AM PDT 7:20 PM PDT
Astronomical Twilight 5:44 AM PDT 7:54 PM PDT
Moon 8:41 PM PDT (10/17) 11:09 AM PDT (10/17)
Length of Visible Light 11h 52m
Length of Day
10h 52m
Waning Gibbous, 86% of the Moon is Illuminated
Oct 17
Waning Gibbous
Oct 21
Last Quarter
Oct 27
New
Nov 4
First Quarter
Nov 12
Full

Hourly Weather History & Observations

Time (PDT) Temp. Dew Point Humidity Pressure Visibility Wind Dir Wind Speed Gust Speed Precip Events Conditions
12:53 AM 54.0 °F 48.9 °F 83% 29.73 in 10.0 mi Calm Calm - 0.00 in   Mostly Cloudy
1:53 AM 53.1 °F 46.9 °F 80% 29.73 in 10.0 mi NW 10.4 mph - N/A   Partly Cloudy
2:53 AM 53.1 °F 46.0 °F 77% 29.75 in 10.0 mi WNW 12.7 mph - N/A   Scattered Clouds
3:53 AM 51.1 °F 44.1 °F 77% 29.74 in 10.0 mi WNW 10.4 mph - 0.01 in   Partly Cloudy
4:53 AM 50.0 °F 42.1 °F 74% 29.75 in 10.0 mi WNW 9.2 mph - N/A   Clear
5:53 AM 48.9 °F 42.1 °F 77% 29.75 in 10.0 mi West 10.4 mph - N/A   Scattered Clouds
6:53 AM 48.0 °F 42.1 °F 80% 29.76 in 10.0 mi WNW 6.9 mph - N/A   Scattered Clouds
7:53 AM 48.0 °F 42.1 °F 80% 29.76 in 10.0 mi Calm Calm - N/A   Overcast
8:53 AM 51.1 °F 43.0 °F 74% 29.78 in 10.0 mi ESE 5.8 mph - N/A   Mostly Cloudy
9:53 AM 52.0 °F 43.0 °F 71% 29.78 in 10.0 mi Calm Calm - N/A   Scattered Clouds
10:53 AM 55.0 °F 45.0 °F 69% 29.79 in 10.0 mi NW 3.5 mph - N/A   Overcast
11:53 AM 57.0 °F 45.0 °F 64% 29.78 in 10.0 mi NNW 3.5 mph - N/A   Scattered Clouds
12:53 PM 57.9 °F 46.0 °F 65% 29.78 in 10.0 mi NW 13.8 mph - N/A   Scattered Clouds
1:53 PM 59.0 °F 44.1 °F 58% 29.78 in 10.0 mi NW 13.8 mph - N/A   Overcast
2:53 PM 61.0 °F 44.1 °F 54% 29.77 in 10.0 mi NW 18.4 mph 26.5 mph N/A   Mostly Cloudy
3:53 PM 60.1 °F 43.0 °F 53% 29.77 in 10.0 mi NW 13.8 mph 27.6 mph N/A   Mostly Cloudy
4:53 PM 60.1 °F 39.9 °F 47% 29.78 in 10.0 mi West 12.7 mph 20.7 mph N/A   Partly Cloudy
5:53 PM 55.9 °F 44.1 °F 64% 29.77 in 10.0 mi NW 12.7 mph - N/A   Scattered Clouds
6:53 PM 55.9 °F 43.0 °F 62% 29.76 in 10.0 mi NW 5.8 mph - N/A   Overcast
7:53 PM 55.0 °F 46.0 °F 72% 29.76 in 10.0 mi NNW 9.2 mph - N/A   Overcast
8:53 PM 53.1 °F 46.0 °F 77% 29.76 in 10.0 mi NNE 3.5 mph - 0.00 in   Overcast
9:53 PM 52.0 °F 46.9 °F 83% 29.76 in 10.0 mi West 3.5 mph - N/A   Overcast
10:53 PM 53.1 °F 46.0 °F 77% 29.79 in 10.0 mi NW 9.2 mph - N/A   Mostly Cloudy
11:53 PM 53.1 °F 43.0 °F 69% 29.83 in 10.0 mi West 13.8 mph 23.0 mph N/A   Overcast